This is the latest recevied weather packets stored in our database for station/object SP1BMW-13. If no packets are shown the sender has not sent any weather packets the latest 1 day(s).
| Time | Temp. | Humidity | Pressure | Rain* | Wind** | Luminosity | Snow |
|---|---|---|---|---|---|---|---|
| 1777998946 | 13.33° C | 89% | 1008.1 hPa | 0 mm | 1.79 m/s, 345° | 10 W/m² | - |
| 1777998886 | 13.33° C | 90% | 1008.2 hPa | 0 mm | 0 m/s | 9 W/m² | - |
| 1777998826 | 13.33° C | 90% | 1008.1 hPa | 0 mm | 0 m/s | 10 W/m² | - |
| 1777998766 | 13.33° C | 89% | 1008.1 hPa | 0 mm | 0 m/s | 12 W/m² | - |
| 1777998706 | 13.33° C | 89% | 1008.1 hPa | 0 mm | 0.45 m/s, 350° | 12 W/m² | - |
| 1777998647 | 13.33° C | 89% | 1008.2 hPa | 0 mm | 0.45 m/s, 332° | 11 W/m² | - |
| 1777998586 | 13.33° C | 89% | 1007.9 hPa | 0 mm | 0 m/s | 12 W/m² | - |
| 1777998526 | 13.33° C | 89% | 1008.1 hPa | 0 mm | 0.45 m/s, 43° | 13 W/m² | - |
| 1777998467 | 13.33° C | 89% | 1008 hPa | 0 mm | 0 m/s | 13 W/m² | - |
| 1777998406 | 13.33° C | 89% | 1008 hPa | 0 mm | 0.45 m/s, 41° | 12 W/m² | - |
| 1777998347 | 13.33° C | 89% | 1008.2 hPa | 0 mm | 0.45 m/s, 16° | 13 W/m² | - |
| 1777998287 | 13.33° C | 89% | 1008.2 hPa | 0 mm | 0.45 m/s, 341° | 15 W/m² | - |
| 1777998227 | 13.33° C | 89% | 1008.2 hPa | 0 mm | 0.45 m/s, 12° | 15 W/m² | - |
| 1777998166 | 13.33° C | 89% | 1008.2 hPa | 0 mm | 0.45 m/s, 44° | 15 W/m² | - |
| 1777998107 | 13.33° C | 89% | 1008.1 hPa | 0 mm | 0.45 m/s, 55° | 15 W/m² | - |
| 1777998047 | 13.33° C | 89% | 1008.3 hPa | 0 mm | 0.45 m/s, 15° | 15 W/m² | - |
| 1777997987 | 13.33° C | 88% | 1008.3 hPa | 0 mm | 0.45 m/s, 17° | 16 W/m² | - |
| 1777997926 | 13.33° C | 88% | 1008.1 hPa | 0 mm | 0.89 m/s, 304° | 18 W/m² | - |
| 1777997866 | 13.33° C | 88% | 1008.3 hPa | 0 mm | 0.89 m/s, 325° | 21 W/m² | - |
| 1777997806 | 13.33° C | 88% | 1008.2 hPa | 0 mm | 0.45 m/s, 25° | 26 W/m² | - |
| 1777997746 | 13.33° C | 88% | 1008.2 hPa | 0 mm | 0 m/s | 28 W/m² | - |
| 1777997687 | 13.33° C | 88% | 1008.3 hPa | 0 mm | 0.89 m/s, 3° | 26 W/m² | - |
| 1777997626 | 13.33° C | 88% | 1008.3 hPa | 0 mm | 0.45 m/s, 12° | 25 W/m² | - |
| 1777997567 | 13.33° C | 88% | 1008.2 hPa | 0 mm | 0.45 m/s, 333° | 23 W/m² | - |
| 1777997506 | 13.33° C | 88% | 1008.3 hPa | 0 mm | 0.89 m/s, 345° | 24 W/m² | - |
* Rain latest hour (hover to see other rain measurements)
** Current wind speed in m/s (hover to see current wind gust speed)